Weather History for Sturgeon Bay, WI

Change the Weather History Date:

Thursday, January 2, 2014

  Actual Average Record
Temperature  
Mean Temperature 5 °F -  
Max Temperature 10 °F 27 °F 44 °F (1998)
Min Temperature -2 °F 11 °F -17 °F (1979)
Degree Days  
Heating Degree Days 60    
Moisture  
Dew Point -3 °F    
Average Humidity 67    
Maximum Humidity 78    
Minimum Humidity 56    
Precipitation  
Precipitation 0.00 in - - ()
Sea Level Pressure  
Sea Level Pressure 30.32 in    
Wind  
Wind Speed 16 mph (North)    
Max Wind Speed 22 mph    
Max Gust Speed 26 mph    
Visibility 10 miles    
Events      
Averages and records for this station are not official NWS values.
T = Trace of Precipitation, MM = Missing Value Source: NWS Daily Summary

Daily Weather History Graph

Daily Weather History Graph

Search for Another Location

Airport:

Trip Planner

Search our weather history database for the weather conditions in past years. The results will help you decide how hot, cold, wet, or windy it might be!

Date:

Astronomy

Jan. 02, 2014 Rise Set
Actual Time 7:27 AM CST 4:20 PM CST
Civil Twilight 6:53 AM CST 4:53 PM CST
Nautical Twilight 6:17 AM CST 5:30 PM CST
Astronomical Twilight 5:41 AM CST 6:06 PM CST
Moon 8:03 AM CST (1/2) 6:22 PM CST (1/2)
Length of Visible Light 9h 59m
Length of Day
8h 52m
Waxing Crescent, 3% of the Moon is Illuminated
Jan 2
Waxing Crescent
Jan 7
First Quarter
Jan 15
Full
Jan 23
Last Quarter
Jan 30
New

Hourly Weather History & Observations

Time (CST) Temp. Windchill Dew Point Humidity Pressure Visibility Wind Dir Wind Speed Gust Speed Precip Events Conditions
12:15 AM 6.8 °F -12.9 °F -0.4 °F 72% 30.32 in 10.0 mi North 19.6 mph - N/A   Overcast
12:35 AM 6.8 °F -12.4 °F -0.4 °F 72% 30.31 in 10.0 mi North 18.4 mph 25.3 mph N/A   Overcast
12:55 AM 6.8 °F -12.9 °F -0.4 °F 72% 30.30 in 10.0 mi North 19.6 mph - N/A   Overcast
1:15 AM 6.8 °F -12.4 °F -2.2 °F 67% 30.30 in 10.0 mi North 18.4 mph - N/A   Overcast
1:35 AM 6.8 °F -11.8 °F -0.4 °F 72% 30.30 in 10.0 mi North 17.3 mph - N/A   Overcast
1:55 AM 6.8 °F -12.9 °F -2.2 °F 67% 30.30 in 10.0 mi North 19.6 mph 24.2 mph N/A   Overcast
2:15 AM 6.8 °F -12.4 °F -0.4 °F 72% 30.30 in 10.0 mi North 18.4 mph - N/A   Overcast
2:35 AM 6.8 °F -12.9 °F -0.4 °F 72% 30.30 in 10.0 mi North 19.6 mph - N/A   Overcast
2:55 AM 6.8 °F -11.8 °F -0.4 °F 72% 30.29 in 10.0 mi North 17.3 mph - N/A   Overcast
3:15 AM 6.8 °F -12.4 °F -0.4 °F 72% 30.29 in 10.0 mi North 18.4 mph - N/A   Overcast
3:35 AM 6.8 °F -13.8 °F -0.4 °F 72% 30.28 in 10.0 mi North 21.9 mph 26.5 mph N/A   Overcast
3:55 AM 6.8 °F -12.9 °F -2.2 °F 67% 30.28 in 10.0 mi North 19.6 mph - N/A   Overcast
4:15 AM 5.0 °F -15.2 °F -0.4 °F 78% 30.28 in 10.0 mi North 19.6 mph - N/A   Overcast
4:35 AM 5.0 °F -15.2 °F -2.2 °F 72% 30.28 in 10.0 mi North 19.6 mph - N/A   Overcast
4:55 AM 3.2 °F -15.9 °F -2.2 °F 78% 30.28 in 10.0 mi North 16.1 mph - N/A   Overcast
5:15 AM 3.2 °F -15.9 °F -2.2 °F 78% 30.28 in 10.0 mi North 16.1 mph - N/A   Overcast
5:35 AM 3.2 °F -15.9 °F -2.2 °F 78% 30.28 in 10.0 mi North 16.1 mph - N/A   Overcast
5:55 AM 3.2 °F -15.3 °F -2.2 °F 78% 30.29 in 10.0 mi North 15.0 mph - N/A   Overcast
6:15 AM 3.2 °F -15.3 °F -4.0 °F 72% 30.29 in 10.0 mi North 15.0 mph - N/A   Overcast
6:35 AM 3.2 °F -15.3 °F -4.0 °F 72% 30.29 in 10.0 mi North 15.0 mph - N/A   Mostly Cloudy
6:55 AM 3.2 °F -16.5 °F -4.0 °F 72% 30.29 in 10.0 mi North 17.3 mph - N/A   Mostly Cloudy
7:15 AM 3.2 °F -17.1 °F -4.0 °F 72% 30.29 in 10.0 mi North 18.4 mph - N/A   Mostly Cloudy
7:35 AM 3.2 °F -16.5 °F -4.0 °F 72% 30.29 in 10.0 mi North 17.3 mph - N/A   Overcast
7:55 AM 3.2 °F -15.9 °F -5.8 °F 66% 30.29 in 10.0 mi North 16.1 mph - N/A   Overcast
8:15 AM 3.2 °F -15.9 °F -5.8 °F 66% 30.30 in 10.0 mi North 16.1 mph - N/A   Overcast
8:35 AM 3.2 °F -15.9 °F -2.2 °F 78% 30.31 in 10.0 mi North 16.1 mph - N/A   Overcast
8:55 AM 3.2 °F -15.3 °F -5.8 °F 66% 30.32 in 10.0 mi North 15.0 mph - N/A   Overcast
9:15 AM 3.2 °F -15.3 °F -4.0 °F 72% 30.32 in 10.0 mi North 15.0 mph - N/A   Overcast
9:35 AM 3.2 °F -15.9 °F -2.2 °F 78% 30.32 in 10.0 mi North 16.1 mph - N/A   Overcast
9:55 AM 5.0 °F -12.3 °F -2.2 °F 72% 30.33 in 10.0 mi North 13.8 mph 19.6 mph N/A   Mostly Cloudy
10:15 AM 3.2 °F -14.6 °F -2.2 °F 78% 30.33 in 10.0 mi North 13.8 mph - N/A   Mostly Cloudy
10:35 AM 5.0 °F -11.6 °F -2.2 °F 72% 30.32 in 10.0 mi North 12.7 mph 19.6 mph N/A   Partly Cloudy
10:55 AM 5.0 °F -12.3 °F -2.2 °F 72% 30.32 in 10.0 mi North 13.8 mph - N/A   Clear
11:15 AM 6.8 °F -11.3 °F -4.0 °F 61% 30.31 in 10.0 mi North 16.1 mph - N/A   Clear
11:35 AM 6.8 °F -10.7 °F -2.2 °F 67% 30.30 in 10.0 mi North 15.0 mph - N/A   Clear
11:55 AM 6.8 °F -10.0 °F -2.2 °F 67% 30.30 in 10.0 mi North 13.8 mph 19.6 mph N/A   Clear
12:15 PM 8.6 °F -8.9 °F -2.2 °F 62% 30.29 in 10.0 mi North 16.1 mph - N/A   Clear
12:35 PM 8.6 °F -9.5 °F -0.4 °F 67% 30.29 in 10.0 mi North 17.3 mph 20.7 mph N/A   Clear
12:55 PM 8.6 °F -8.9 °F -2.2 °F 62% 30.28 in 10.0 mi North 16.1 mph - N/A   Clear
1:15 PM 10.4 °F -6.0 °F -2.2 °F 57% 30.28 in 10.0 mi North 15.0 mph - N/A   Clear
1:35 PM 10.4 °F -4.8 °F -2.2 °F 57% 30.28 in 10.0 mi North 12.7 mph - N/A   Clear
1:55 PM 10.4 °F -5.4 °F -2.2 °F 57% 30.29 in 10.0 mi North 13.8 mph - N/A   Clear
2:15 PM 10.4 °F -5.4 °F -2.2 °F 57% 30.29 in 10.0 mi NNW 13.8 mph - N/A   Clear
2:35 PM 10.4 °F -4.8 °F -2.2 °F 57% 30.29 in 10.0 mi North 12.7 mph - N/A   Clear
2:55 PM 10.4 °F -3.3 °F -2.2 °F 57% 30.30 in 10.0 mi NNW 10.4 mph - N/A   Clear
3:15 PM 10.4 °F -3.3 °F -2.2 °F 57% 30.31 in 10.0 mi North 10.4 mph - N/A   Clear
3:35 PM 10.4 °F -2.4 °F -2.2 °F 57% 30.32 in 10.0 mi North 9.2 mph - N/A   Partly Cloudy
3:55 PM 10.4 °F -2.4 °F -2.2 °F 57% 30.32 in 10.0 mi North 9.2 mph - N/A   Mostly Cloudy
4:15 PM 10.4 °F -2.4 °F -0.4 °F 62% 30.33 in 10.0 mi North 9.2 mph - N/A   Overcast
4:35 PM 10.4 °F -1.5 °F -0.4 °F 62% 30.33 in 10.0 mi North 8.1 mph - N/A   Overcast
4:55 PM 10.4 °F -5.4 °F -0.4 °F 62% 30.34 in 9.0 mi North 13.8 mph - N/A   Overcast
5:15 PM 10.4 °F -6.0 °F -2.2 °F 57% 30.34 in 10.0 mi North 15.0 mph - N/A   Overcast
5:35 PM 8.6 °F -7.7 °F -2.2 °F 62% 30.35 in 10.0 mi North 13.8 mph - N/A   Mostly Cloudy
5:55 PM 8.6 °F -6.3 °F -2.2 °F 62% 30.34 in 10.0 mi North 11.5 mph - N/A   Mostly Cloudy
6:15 PM 8.6 °F -6.3 °F -4.0 °F 57% 30.34 in 10.0 mi North 11.5 mph - N/A   Overcast
6:35 PM 6.8 °F -10.7 °F -4.0 °F 61% 30.35 in 10.0 mi North 15.0 mph 19.6 mph N/A   Scattered Clouds
6:55 PM 6.8 °F -11.3 °F -5.8 °F 56% 30.35 in 10.0 mi NNW 16.1 mph - N/A   Clear
7:15 PM 6.8 °F -10.0 °F -5.8 °F 56% 30.35 in 10.0 mi North 13.8 mph - N/A   Clear
7:35 PM 5.0 °F -10.0 °F -5.8 °F 61% 30.36 in 10.0 mi NNW 10.4 mph - N/A   Clear
7:55 PM 5.0 °F -9.1 °F -5.8 °F 61% 30.36 in 10.0 mi NNW 9.2 mph - N/A   Clear
8:15 PM 3.2 °F -11.3 °F -7.6 °F 61% 30.36 in 10.0 mi NNW 9.2 mph - N/A   Clear
8:35 PM 3.2 °F -11.3 °F -5.8 °F 66% 30.36 in 10.0 mi NNW 9.2 mph - N/A   Clear
8:55 PM 3.2 °F -10.3 °F -7.6 °F 61% 30.36 in 10.0 mi North 8.1 mph - N/A   Clear
9:15 PM 1.4 °F -12.5 °F -7.6 °F 66% 30.36 in 10.0 mi North 8.1 mph - N/A   Clear
9:35 PM 1.4 °F -12.5 °F -7.6 °F 66% 30.36 in 10.0 mi NNW 8.1 mph - N/A   Clear
9:55 PM 1.4 °F -11.3 °F -5.8 °F 72% 30.35 in 10.0 mi NNW 6.9 mph - N/A   Clear
10:15 PM 1.4 °F -12.5 °F -7.6 °F 66% 30.36 in 10.0 mi NNW 8.1 mph - N/A   Clear
10:35 PM -0.4 °F -14.7 °F -7.6 °F 72% 30.36 in 10.0 mi NNW 8.1 mph - N/A   Clear
10:55 PM -0.4 °F -8.3 °F -7.6 °F 72% 30.36 in 10.0 mi NW 3.5 mph - N/A   Clear
11:15 PM 1.4 °F -11.3 °F -7.6 °F 66% 30.35 in 10.0 mi NW 6.9 mph - N/A   Clear
11:35 PM -0.4 °F - -5.8 °F 78% 30.35 in 10.0 mi Calm Calm - N/A   Clear
11:55 PM -2.2 °F - -13.0 °F 60% 30.35 in 10.0 mi Calm Calm - N/A   Clear